Hourly Data Report for February 22, 2006

TORONTO CITY
ONTARIO

43°40'00.000" N
79°24'00.000" W
112.50 m
6158355
71508
XTO

Download Data

Hourly Data (February 2006)
Hourly Data Report for February 22, 2006
TIME
LST
Temp Definition
°C
Dew Point Definition
°C
Rel Hum Definition
%
Precip. Amount Definition
mm

Wind Dir Definition
10's deg

Wind Spd Definition
km/h
Visibility Definition
km
Stn Press Definition
kPa
Hmdx Definition


Wind Chill Definition


Weather Definition


00:00 -2.1 -8.5 62   LegendMM LegendMM   100.12     LegendNANA
01:00 -1.9 -7.1 68   LegendMM LegendMM   100.07     LegendNANA
02:00 -1.1 -7.0 64   LegendMM LegendMM   100.07     LegendNANA
03:00 -0.8 -6.1 67   LegendMM LegendMM   99.99     LegendNANA
04:00 -0.8 -6.3 66   LegendMM LegendMM   99.94     LegendNANA
05:00 -0.5 -3.8 78   LegendMM LegendMM   99.94     LegendNANA
06:00 -0.1 -3.1 80   LegendMM LegendMM   99.90     LegendNANA
07:00 -0.1 -2.6 83   LegendMM LegendMM   99.87     LegendNANA
08:00 -0.5 -3.6 80   LegendMM LegendMM   99.88     LegendNANA
09:00 0.0 -3.4 78   LegendMM LegendMM   99.84     LegendNANA
10:00 0.9 -2.7 77   LegendMM LegendMM   99.83     LegendNANA
11:00 2.8 -2.4 69   LegendMM LegendMM   99.78     LegendNANA
12:00 3.6 -3.0 62   LegendMM LegendMM   99.76     LegendNANA
13:00 4.7 -2.8 58   LegendMM LegendMM   99.69     LegendNANA
14:00 5.2 -2.2 59   LegendMM LegendMM   99.58     LegendNANA
15:00 5.8 -1.3 60   LegendMM LegendMM   99.53     LegendNANA
16:00 5.4 -1.4 62   LegendMM LegendMM   99.52     LegendNANA
17:00 5.1 -1.3 63   LegendMM LegendMM   99.52     LegendNANA
18:00 5.8 -3.7 50   LegendMM LegendMM   99.53     LegendNANA
19:00 4.9 -3.5 54   LegendMM LegendMM   99.57     LegendNANA
20:00 4.1 -2.8 61   LegendMM LegendMM   99.60     LegendNANA
21:00 3.5 -0.6 74   LegendMM LegendMM   99.60     LegendNANA
22:00 3.3 -2.0 68   LegendMM LegendMM   99.66     LegendNANA
23:00 2.2 -2.8 69   LegendMM LegendMM   99.67     LegendNANA

Notes on Data Quality.

Legend

  • E = Estimated
  • M = Missing
  • NA = Not Available*
  • [empty] = Indicates an unobserved value
Date modified: